Location: ??????
(42.0089°N, 44.3281°E)
Time: 17:22:22
(UTC+00:00)

USA 267 - Pass Details

Date: 05 June 2022
Orbit: 1101 x 1106 km, 123.0° (Epoch: 28 June)

Event Time Altitude Azimuth Distance (km) Brightness Sun altitude
Rises 23:48:48 0° 155° (SSE) 3,903 5.9 -14.7°
Reaches altitude 10° 23:51:26 10° 162° (SSE) 2,949 5.2 -14.4°
Maximum altitude 23:57:30 41° 231° (SW) 1,553 3.6 -13.6°
Drops below altitude 10° 00:03:36 10° 300° (WNW) 2,962 5.4 -12.9°
Sets 00:06:16 0° 307° (NW) 3,923 6.1 -12.5°
